STARLINK-36139, 66966

Orbit data source: Space-Track

STARLINK-36139, 66966 is a payload satellite owned by SpaceX/Seattle (US) in LEO that was launched on Mon, 08 Dec 2025 UTC via an FALCON 9 launch vehicle from the Air Force Eastern Test Range (AFETR). Payload-class satellites include a variety of spacecraft equipped with specific instruments for various scientific and technological missions. These include communications satellites like Starlink; space stations such as the ISS; scientific satellites like the Hubble; Earth observation satellites from companies like Planet Labs, Umbra, and HawkEye 360; GPS; miniature CubeSats for education and research; and military/defense satellites.

Loading next visibility...
Identifier
66966, 2025-288H
Orbit
LEO
Country
Flag of USUS
Related business
Manufacturer
SpaceX/Seattle
Mission
Operational Commercial Communications
Bus & Motor
STARLINK V2MO, Unknown motor
Mass
575 kg wet, ~530 kg dry
Launch date (UTC)
2025-12-08 (5 months ago)
Launch vehicle
FALCON 9
Launch site
Air Force Eastern Test Range (AFETR)
Object type
Payload
Rocket body
Debris
Shape & HBR
Box + 2 Pan, 17.7 m
Radar Cross Section
36.964 m²

Expand to show TLE details & history
Last TLE update: 10 hours ago

TLE from 10 hours ago
0 STARLINK-36139
1 66966U 25288H   26130.11219660  .00009016  00000-0  33675-3 0  9999
2 66966  43.0047  36.3595 0001487 268.9880  91.0801 15.27580454 24685
Epoch: 2026-05-10T02:41Z
TLE epoch observation values (Epoch: 2026-05-10T02:41:33.786Z)
Latitude
-0.00003°
Longitude
128.04874°
Altitude
482.843 km
Speed
7.626 km/s
True Right ascension
02h 25m 26s
True Declination
0° 00' 00"
Sunlit
Object was in daylight at epoch
Visualization orbit readout
Latitude
Unknown
Longitude
Unknown
Altitude
Unknown
Speed
Unknown
Apparent Right ascension
Unknown
Apparent Declination
Unknown
Sunlit
N/A
Visualization observer readout
Local Sidereal Time
20:35:58
Azimuth
Unknown
Elevation
Unknown
Doppler factor
Unknown
Orbital elements
Apogee altitude
486.013 km
Perigee altitude
483.972 km
Semi-major axis
6,863.129 km
Eccentricity
0.00015
Inclination
43.0047°
RAAN
36.3595°
Arg. of periapsis
268.988°
True anomaly
91.09714°
Mean anomaly
91.0801°
Eccentric anomaly
91.08862°
Mean motion
3.81733 °/min
Orbital period
94.31 mins
BSTAR
0.00033675
Loading maneuver chart data...
Computing Atmospheric mass density...
Loading historical data...
Loading historical data...
Loading historical data...
Loading historical data...
Loading historical data...
Loading historical data...
Loading historical data...

Documentation

Showing up to 5 results
|